Home > Weather > San Luis Obispo > Past weeks

Flag for USA Past Weather in San Luis Obispo, California, USA — Yesterday and Last 2 Weeks

Now
82 °F

Sunny.


Feels Like: 82 °F
Forecast: 56 / 79 °F
Wind: 9 mph from Southwest

Location: San Luis Obispo County-Mc Chesney Field

Current Time: Jul 24, 2016 at 3:33:39 PM

Latest Report: Jul 24, 2016 at 2:56 PM


Visibility: 10 mi

Pressure: 29.91 "Hg

Humidity: 43%

Dew Point: 57 °F

Location of San Luis ObispoLocation

Past Weather in San Luis Obispo — Graph

°F

San Luis Obispo Temperature Yesterday

Maximum temperature yesterday: 83 °F (at 11:56 AM)
Minimum temperature yesterday: 56 °F (at 12:56 AM)
Average temperature yesterday: 68 °F

High & Low Weather Summary for the Past Weeks

 TemperatureHumidityPressure
High88 °F (Jul 24, 12:56 PM)93% (Jul 14, 6:56 AM)30.08 "Hg (Jul 14, 6:56 AM)
Low52 °F (Jul 19, 4:56 AM)25% (Jul 21, 1:56 PM)29.79 "Hg (Jul 23, 5:56 PM)
Average65 °F67%29.96 "Hg
* Reported Jul 9 1:56 PM — Jul 24 1:56 PM, San Luis Obispo, Weather by CustomWeather, © 2016

Note: Actual official high and low records may vary slightly from our data, if they occured in-between our weather recording intervals... More about our weather records

Advertising

San Luis Obispo Weather History for the Previous 24 Hours

Scroll right to see more
 ConditionsComfort  
Time TempWeatherWind HumidityBarometerVisibility
1:56 PM
Sun, Jul 24
85 °FSunny.5 mph36%29.90 "Hg10 mi
12:56 PM88 °FSunny.9 mph33%29.88 "Hg10 mi
11:56 AM84 °FSunny.5 mph37%29.88 "Hg10 mi
10:56 AM80 °FSunny.5 mph42%29.88 "Hg10 mi
9:56 AM73 °FSunny.5 mph51%29.89 "Hg9 mi
8:56 AM67 °FSunny.3 mph63%29.89 "Hg8 mi
7:56 AM61 °FSunny.N/A75%29.88 "Hg7 mi
6:56 AM56 °FClear.5 mph84%29.85 "Hg5 mi
5:56 AM56 °FClear.No wind84%29.85 "Hg7 mi
4:56 AM56 °FClear.6 mph81%29.83 "Hg8 mi
3:56 AM56 °FClear.6 mph77%29.82 "Hg8 mi
2:56 AM58 °FClear.5 mph75%29.82 "Hg9 mi
1:56 AM59 °FClear.No wind72%29.82 "Hg9 mi
12:56 AM59 °FClear.No wind72%29.83 "Hg9 mi
11:56 PM
Sat, Jul 23
59 °FClear.No wind75%29.83 "Hg8 mi
10:56 PM60 °FClear.No wind75%29.83 "Hg9 mi
9:56 PM58 °FClear.No wind81%29.83 "Hg8 mi
8:56 PM59 °FSunny.6 mph78%29.82 "Hg8 mi
7:56 PM62 °FSunny.9 mph70%29.80 "Hg8 mi
6:56 PM68 °FSunny.13 mph57%29.79 "Hg9 mi
5:56 PM72 °FSunny.15 mph49%29.79 "Hg10 mi
4:56 PM76 °FSunny.15 mph43%29.79 "Hg10 mi
3:56 PM80 °FSunny.22 mph36%29.81 "Hg10 mi
Weather by CustomWeather, © 2016

See weather overviewHow to use our weather pages